GW6106 Weather Reports


time (UTC)temp
F
wind
direction
speed
knots
gust
knots
rain 1hr
in
rain 24hr
in
rain mn
in
humidity
%
barometer
mb
20260504050350 45 167 2.6 3.5 0.00 0.00 0.04 92 1008.0
20260504045849 45 172 1.7 2.6 0.00 0.00 0.04 92 1008.0
20260504045349 45 161 1.7 2.6 0.00 0.00 0.04 92 1008.0
20260504044849 45 119 0.0 1.7 0.00 0.00 0.04 92 1009.0
20260504044349 45 165 0.9 3.5 0.00 0.00 0.04 92 1008.0
20260504043849 45 162 1.7 2.6 0.00 0.00 0.04 91 1009.0
20260504043351 45 148 1.7 2.6 0.00 0.00 0.04 91 1009.0
20260504042854 45 156 2.6 3.5 0.10 0.00 0.04 91 1009.0
20260504042349 45 191 1.7 3.5 0.10 0.00 0.03 91 1009.0
20260504041849 45 205 2.6 3.5 0.07 0.00 0.02 91 1009.0
20260504041349 45 159 0.0 1.7 0.23 0.00 0.01 91 1009.0
20260504040849 45 203 1.7 3.5 0.04 0.00 0.00 90 1009.0
20260504040350 45 200 0.9 3.5 0.01 0.00 0.00 90 1009.0
20260504035850 45 198 1.7 2.6 0.00 0.00 0.08 90 1009.0
20260504035349 45 201 1.7 2.6 0.00 0.00 0.08 90 1009.0
20260504034850 45 218 0.0 0.0 0.02 0.00 0.08 90 1009.0
20260504034349 45 213 0.0 1.7 0.00 0.00 0.08 90 1009.0
20260504033850 45 195 0.9 1.7 0.00 0.00 0.08 90 1009.0
20260504033349 45 224 0.0 1.7 0.00 0.00 0.08 90 1009.0
20260504032851 45 0 0.0 0.0 0.00 0.00 0.08 90 1009.0
20260504032349 45 346 0.0 0.9 0.00 0.00 0.08 90 1009.0
20260504031850 45 172 0.0 1.7 0.00 0.00 0.09 89 1009.0
20260504031350 45 192 1.7 5.2 0.00 0.00 0.09 89 1009.0
20260504030850 45 141 0.0 1.7 0.00 0.00 0.09 89 1009.0
20260504030349 45 131 0.0 1.7 0.00 0.00 0.08 89 1009.0
20260504025850 45 0 0.0 0.0 0.00 0.00 0.08 88 1009.0
20260504025349 45 191 0.9 1.7 0.03 0.00 0.07 87 1009.0
20260504024849 45 251 0.0 0.9 0.00 0.00 0.07 87 1009.0
20260504024349 45 173 0.0 1.7 0.00 0.00 0.07 87 1009.0
20260504023849 45 240 0.0 0.9 0.00 0.00 0.07 86 1009.0
20260504023350 45 213 0.9 2.6 0.00 0.00 0.07 86 1009.0
20260504022850 45 205 1.7 2.6 0.00 0.00 0.07 85 1009.0
20260504022349 45 208 1.7 2.6 0.02 0.00 0.07 84 1009.0
20260504021849 45 229 2.6 3.5 0.01 0.00 0.08 83 1009.0
20260504021351 45 244 4.3 7.0 0.10 0.00 0.08 82 1010.0
20260504020850 46 215 3.5 4.3 0.09 0.00 0.07 81 1010.0
20260504020349 46 231 2.6 3.5 0.02 0.00 0.06 81 1010.0
20260504015851 46 227 3.5 6.1 0.05 0.00 0.06 79 1010.0
20260504015350 46 226 3.5 4.3 0.01 0.00 0.06 78 1010.0
20260504014849 46 226 2.6 4.3 0.02 0.00 0.06 78 1010.0
20260504014350 46 226 3.5 4.3 0.05 0.00 0.05 77 1010.0
20260504013850 46 225 3.5 4.3 0.05 0.00 0.05 77 1010.0
20260504013349 46 211 3.5 5.2 0.04 0.00 0.04 77 1009.0
20260504012849 47 217 2.6 5.2 0.09 0.00 0.04 77 1009.0
20260504012350 47 217 4.3 6.1 0.08 0.00 0.03 75 1009.0
20260504011849 47 236 4.3 6.1 0.04 0.00 0.02 74 1009.0
20260504011350 47 228 3.5 5.2 0.02 0.00 0.02 72 1009.0
20260504010849 47 219 3.5 4.3 0.05 0.00 0.02 71 1009.0
20260504010350 47 219 3.5 5.2 0.04 0.00 0.01 71 1009.0
20260504005849 47 199 0.9 1.7 0.03 0.00 0.01 71 1009.0
20260504005349 48 170 2.6 3.5 0.01 0.00 0.01 69 1009.0
20260504004849 48 151 1.7 3.5 0.03 0.00 0.00 67 1009.0
20260504004349 48 166 1.7 4.3 0.00 0.00 0.00 65 1009.0
20260504003849 48 147 1.7 3.5 0.00 0.00 0.00 64 1009.0
20260504003349 48 137 0.0 1.7 0.00 0.00 0.00 62 1009.0
20260504002850 48 140 1.7 3.5 0.00 0.00 0.00 61 1009.0
20260504002350 48 161 0.0 2.6 0.00 0.00 0.00 60 1009.0
20260504001849 48 138 0.9 1.7 0.00 0.00 0.00 59 1009.0
20260504001349 48 147 0.9 2.6 0.00 0.00 0.00 58 1009.0
20260504000849 48 158 0.0 0.0 0.00 0.00 0.00 58 1009.0
20260504000350 48 159 0.9 2.6 0.00 0.00 0.00 57 1009.0
20260503235849 48 139 0.0 1.7 0.00 0.00 0.00 56 1009.0
20260503235349 48 173 0.0 1.7 0.00 0.00 0.00 56 1009.0
20260503234849 49 186 0.0 2.6 0.00 0.00 0.00 55 1009.0
20260503234349 49 181 3.5 5.2 0.00 0.00 0.00 53 1009.0
20260503233849 49 193 0.9 2.6 0.00 0.00 0.00 52 1009.0
20260503233349 49 230 3.5 4.3 0.00 0.00 0.00 52 1009.0
20260503232850 49 213 2.6 3.5 0.00 0.00 0.00 51 1009.0
20260503232350 49 255 3.5 6.1 0.00 0.00 0.00 48 1009.0
20260503231850 49 246 1.7 2.6 0.00 0.00 0.00 47 1009.0
20260503231349 49 224 1.7 3.5 0.00 0.00 0.00 46 1009.0
20260503230849 49 242 1.7 3.5 0.00 0.00 0.00 46 1009.0
20260503230349 49 235 2.6 3.5 0.00 0.00 0.00 45 1009.0
20260503225849 49 217 1.7 4.3 0.00 0.00 0.00 46 1009.0
20260503225350 49 229 1.7 2.6 0.00 0.00 0.00 46 1009.0
20260503224851 49 203 1.7 3.5 0.00 0.00 0.00 46 1009.0
20260503224349 49 237 0.9 2.6 0.00 0.00 0.00 46 1009.0
20260503223850 49 230 0.0 1.7 0.00 0.00 0.00 48 1009.0
20260503223349 49 234 0.9 2.6 0.00 0.00 0.00 44 1009.0
20260503222849 49 232 2.6 4.3 0.00 0.00 0.00 44 1009.0
20260503222350 50 228 1.7 3.5 0.00 0.00 0.00 46 1009.0
20260503221849 50 241 1.7 2.6 0.00 0.00 0.00 45 1009.0
20260503221351 50 245 1.7 3.5 0.00 0.00 0.00 45 1009.0
20260503220850 50 224 1.7 2.6 0.00 0.00 0.00 43 1009.0
20260503220349 50 254 2.6 3.5 0.00 0.00 0.00 45 1009.0
20260503215850 50 256 5.2 7.0 0.00 0.00 0.00 44 1009.0
20260503215349 50 253 3.5 5.2 0.00 0.00 0.00 44 1009.0
20260503214849 50 227 1.7 3.5 0.00 0.00 0.00 44 1009.0
20260503214349 50 260 4.3 7.8 0.00 0.00 0.00 42 1009.0
20260503213849 50 237 3.5 5.2 0.00 0.00 0.00 44 1009.0
20260503213349 50 261 4.3 6.1 0.00 0.00 0.00 43 1009.0
20260503212850 51 247 5.2 6.1 0.00 0.00 0.00 44 1009.0
20260503212349 51 264 0.9 1.7 0.00 0.00 0.00 43 1009.0
20260503211849 51 234 5.2 7.0 0.00 0.00 0.00 42 1009.0
20260503211351 51 246 6.1 7.8 0.00 0.00 0.00 42 1009.0
20260503210850 52 248 6.1 10.4 0.00 0.00 0.00 43 1009.0
20260503210349 52 250 5.2 8.7 0.00 0.00 0.00 43 1009.0
20260503205849 51 257 7.0 9.6 0.00 0.00 0.00 43 1009.0
20260503205349 51 261 6.1 7.8 0.00 0.00 0.00 46 1009.0
20260503204849 51 231 5.2 8.7 0.00 0.00 0.00 46 1009.0
20260503204349 51 245 7.0 9.6 0.00 0.00 0.00 46 1009.0
20260503203849 50 252 8.7 12.2 0.00 0.00 0.00 45 1009.0
20260503203349 49 243 5.2 7.0 0.00 0.00 0.00 50 1010.0
20260503202850 49 242 7.0 10.4 0.00 0.00 0.00 50 1010.0
20260503202350 49 258 8.7 10.4 0.00 0.00 0.00 49 1010.0
20260503201849 50 259 6.1 8.7 0.00 0.00 0.00 52 1010.0
20260503201349 51 255 6.1 8.7 0.00 0.00 0.00 50 1010.0
20260503200849 51 231 7.8 10.4 0.00 0.00 0.00 49 1010.0
20260503200350 51 262 3.5 7.8 0.00 0.00 0.00 49 1010.0
20260503195849 52 233 8.7 13.0 0.00 0.00 0.00 48 1010.0
20260503195353 52 248 3.5 7.0 0.00 0.00 0.00 50 1010.0
20260503194850 51 253 7.0 9.6 0.00 0.00 0.00 50 1010.0
20260503194349 51 249 6.1 7.8 0.00 0.00 0.00 51 1010.0
20260503193849 50 258 7.0 8.7 0.00 0.00 0.00 50 1010.0
20260503193349 50 257 5.2 8.7 0.00 0.00 0.00 50 1010.0
20260503192849 50 266 7.8 9.6 0.00 0.00 0.00 50 1010.0
20260503192349 51 258 5.2 9.6 0.00 0.00 0.00 50 1010.0
20260503191849 51 268 2.6 7.0 0.00 0.00 0.00 49 1010.0
20260503191349 51 260 7.8 10.4 0.00 0.00 0.00 48 1010.0
20260503190849 51 256 7.8 11.3 0.00 0.00 0.00 49 1010.0
20260503190350 51 264 6.1 8.7 0.00 0.00 0.00 47 1010.0
20260503185850 51 268 6.1 9.6 0.00 0.00 0.00 46 1010.0
20260503185350 50 286 1.7 3.5 0.00 0.00 0.00 46 1010.0
20260503184849 50 239 5.2 8.7 0.00 0.00 0.00 45 1011.0
20260503184352 50 246 7.0 8.7 0.00 0.00 0.00 46 1011.0
20260503183850 49 229 4.3 7.0 0.00 0.00 0.00 43 1011.0
20260503183350 49 258 5.2 9.6 0.00 0.00 0.00 44 1011.0
20260503182849 50 265 5.2 8.7 0.00 0.00 0.00 45 1011.0
20260503182349 49 249 6.1 8.7 0.00 0.00 0.00 45 1011.0
20260503181849 49 261 6.1 7.8 0.00 0.00 0.00 45 1011.0
20260503181349 49 264 7.8 9.6 0.00 0.00 0.00 44 1011.0
20260503180849 49 231 3.5 7.0 0.00 0.00 0.00 45 1011.0
20260503180351 49 253 7.0 8.7 0.00 0.00 0.00 43 1011.0
20260503175850 49 258 7.8 9.6 0.00 0.00 0.00 42 1011.0
20260503175351 49 231 4.3 7.0 0.00 0.00 0.00 47 1011.0
20260503174849 49 259 7.8 10.4 0.00 0.00 0.00 44 1011.0
20260503174350 49 244 6.1 7.8 0.00 0.00 0.00 45 1011.0
20260503173849 49 251 5.2 7.0 0.00 0.00 0.00 44 1011.0
20260503173349 49 254 7.0 10.4 0.00 0.00 0.00 44 1011.0
20260503172857 49 256 7.0 11.3 0.00 0.00 0.00 44 1011.0
20260503172349 48 233 4.3 6.1 0.00 0.00 0.00 45 1011.0
20260503171850 48 252 3.5 5.2 0.00 0.00 0.00 46 1011.0
20260503171349 48 258 7.0 11.3 0.00 0.00 0.00 44 1011.0
20260503170850 48 250 7.0 11.3 0.00 0.00 0.00 43 1011.0
20260503170353 48 288 3.5 4.3 0.00 0.00 0.00 44 1011.0
20260503150849 45 260 7.8 10.4 0.00 0.00 0.00 56 1013.0
20260503150350 45 261 4.3 5.2 0.00 0.00 0.00 57 1013.0
20260503131349 45 342 2.6 3.5 0.00 0.00 0.00 50 1012.0
20260503130849 44 317 1.7 4.3 0.00 0.00 0.00 52 1013.0
20260503130349 44 248 2.6 4.3 0.00 0.00 0.00 58 1013.0
20260503110350 36 282 0.9 0.9 0.00 0.00 0.00 83 1012.0
20260503090349 37 0 0.0 0.0 0.00 0.00 0.00 88 1012.0
20260503081350 37 112 0.0 0.9 0.00 0.00 0.00 89 1012.0
20260503080850 37 105 0.0 0.9 0.00 0.00 0.00 89 1012.0
20260503080350 37 116 0.9 0.9 0.00 0.00 0.00 89 1012.0
20260503072850 37 72 0.0 0.9 0.00 0.00 0.00 88 1012.0
20260503072350 37 98 0.9 1.7 0.00 0.00 0.00 88 1012.0
20260503071849 37 100 0.9 1.7 0.00 0.00 0.00 88 1012.0
20260503071350 37 101 0.9 1.7 0.00 0.00 0.00 88 1012.0
20260503070849 37 101 1.7 1.7 0.00 0.00 0.00 88 1012.0
20260503070349 37 88 0.9 1.7 0.00 0.00 0.00 88 1012.0
20260503054849 38 25 0.0 0.9 0.00 0.00 0.00 84 1013.0
20260503054349 38 18 0.9 1.7 0.00 0.00 0.00 84 1013.0